Tracking 22124 objects as of 23-Jan-2021
HD Live streaming from Space Station
objects crossing your sky now

OPS 1294 (DMSP 5D-2 F7)

Track OPS 1294 (DMSP 5D-2 F7) now!
10-day predictions
OPS 1294 (DMSP 5D-2 F7) is classified as:


NORAD ID: 14506
Int'l Code: 1983-113A
Perigee: 797.8 km
Apogee: 812.5 km
Inclination: 98.3 °
Period: 100.8 minutes
Semi major axis: 7176 km
RCS: 4.7791 m2 (large)
Launch date: November 18, 1983
Source: United States (US)
Launch site: AIR FORCE WESTERN TEST RANGE (AFWTR)
aabbcc
Your satellite tracking list
Your tracking list is empty




NASA's NSSDC Master Catalog

Two Line Element Set (TLE):
1 14506U 83113A   21023.58105997  .00000031  00000-0  28900-4 0  9991
2 14506  98.3092 231.6491 0010259 296.3379 123.6484 14.28129977934094
Source of the keplerian elements: AFSPC